User: anonymous   Login
Location: Unspecified
(0.0000°N, 0.0000°E)
Time: 15:27:10
(UTC+00:00)
Language:

Explorer 7 - Orbit

View from above orbital plane
View from above orbital plane
View from above satellite
View from above satellite

Ground track
Ground track

The orbit data is extracted from the following two-line orbital elements,

1    22U 59009A   18347.42609028 -.00000064  00000-0  18494-4 0  9992
2    22  50.2833 171.3619 0140487 310.3230  48.5512 14.94716625142749
Epoch (UTC): 13 December 2018 10:13:34
Eccentricity: 0.0140487
inclination: 50.2833°
perigee height: 485 km
apogee height: 681 km
right ascension of ascending node: 171.3619°
argument of perigee: 310.3230°
revolutions per day: 14.94716625
mean anomaly at epoch: 48.5512°
orbit number at epoch: 14274

The dashed part of the orbit path shows where the satellite is in the earth's shadow,  

DLR